Location: *
(45.5667°S, 177.5167°W)
Time: 22:02:55
(UTC+00:00)

AQUARIUS - Pass Details

Date: 29 May 2022
Orbit: 648 x 651 km, 98.0° (Epoch: 24 June)

Event Time Altitude Azimuth Distance (km) Brightness Sun altitude
Exits shadow 06:25:04 29° 165° (SSE) 1,230 5.3 -21.7°
Maximum altitude 06:27:26 88° 76° (ENE) 669 4.1 -22.1°
Drops below altitude 10° 06:31:58 10° 346° (NNW) 2,068 7.0 -22.9°
Sets 06:34:10 0° 345° (NNW) 2,971 7.8 -23.3°
